This demonstration page uses our WeatherBlox Daily Observations layout. Learn more.

Left ArrowRight Arrow

30.00354, -91.81873

Hourly Observations for September 11, 2022

Temp ( °F °C ) Dew Point ( °F °C ) Humidity (%) Winds ( mph kmh ) Pressure ( in mb ) Visibility ( mi km ) Precip ( " mm )
12:53 am 00:53 Clear 73 22.8 69 20.6 87 87 N 3 6 29.99 1016 10 16 0.00 0.00
1:53 am 01:53 Clear 71 21.7 69 20.6 93 93 Calm 29.98 1015 10 16 0.00 0.00
2:53 am 02:53 Clear 71 21.7 69 20.6 93 93 NW 3 6 29.98 1015 7 11 0.00 0.00
3:53 am 03:53 Clear 71 21.7 69 20.6 93 93 Calm 29.99 1016 9 14 0.00 0.00
4:53 am 04:53 Clear 71 21.7 68 20 90 90 Calm 30.00 1016 8 13 0.00 0.00
5:53 am 05:53 Clear 71 21.7 68 20 90 90 Calm 30.01 1016 8 13 0.00 0.00
6:53 am 06:53 Sunny 70 21.1 68 20 93 93 Calm 30.01 1016 7 11 0.00 0.00
7:53 am 07:53 Sunny 74 23.3 69 20.6 85 85 Calm 30.03 1017 10 16 0.00 0.00
8:53 am 08:53 Sunny 79 26.1 72 22.2 79 79 Calm 30.05 1018 10 16 0.00 0.00
9:53 am 09:53 Sunny 82 27.8 71 21.7 69 69 NNW 6 9 30.06 1018 10 16 0.00 0.00
10:53 am 10:53 Sunny 85 29.4 70 21.1 61 61 N 5 7 30.06 1018 10 16 0.00 0.00
11:53 am 11:53 Mostly Cloudy 87 30.6 70 21.1 57 57 NNW 9 15 30.05 1018 10 16 0.00 0.00
12:53 pm 12:53 Partly Cloudy 85 29.4 70 21.1 61 61 NW 8 13 30.04 1017 10 16 0.00 0.00
1:53 pm 13:53 Partly Cloudy 89 31.7 70 21.1 54 54 N 8 13 30.02 1017 10 16 0.00 0.00
2:53 pm 14:53 Partly Cloudy 89 31.7 70 21.1 54 54 NNW 9 15 30.00 1016 10 16 0.00 0.00
3:53 pm 15:53 Sunny 90 32.2 69 20.6 50 50 NNW 12 19 29.98 1015 10 16 0.00 0.00
4:53 pm 16:53 Mostly Sunny 90 32.2 70 21.1 52 52 NNE 9 15 29.97 1015 10 16 0.00 0.00
5:53 pm 17:53 Sunny 89 31.7 69 20.6 52 52 NNE 9 15 29.97 1015 10 16 0.00 0.00
6:53 pm 18:53 Mostly Sunny 85 29.4 70 21.1 61 61 NNE 5 7 29.98 1015 10 16 0.00 0.00
7:53 pm 19:53 Mostly Clear 82 27.8 71 21.7 69 69 Calm 30.00 1016 10 16 0.00 0.00
8:53 pm 20:53 Clear 78 25.6 73 22.8 85 85 Calm 30.01 1016 10 16 0.00 0.00
9:53 pm 21:53 Clear 77 25 71 21.7 82 82 NNW 6 9 30.02 1017 10 16 0.00 0.00
10:53 pm 22:53 Clear 77 25 71 21.7 82 82 NNW 3 6 30.02 1017 10 16 0.00 0.00
11:53 pm 23:53 Clear 73 22.8 70 21.1 90 90 Calm 30.02 1017 10 16 0.00 0.00

Powered by AerisWeather